Home > Weather > Warren > Past weeks

Flag for USA Past Weather in Warren, Michigan, USA — Yesterday and Last 2 Weeks

Now
75 °F

Clear.


Feels Like: 75 °F
Forecast: 71 / 85 °F
Wind: 5 mph from North

Location: Detroit City Airport

Current Time: Jul 28, 2016 at 2:49:50 AM

Latest Report: Jul 28, 2016 at 1:53 AM


Visibility: 10 mi

Pressure: 29.91 "Hg

Humidity: 82%

Dew Point: 69 °F

Location of WarrenLocation

Past Weather in Warren — Graph

°F

Warren Temperature Yesterday

Maximum temperature yesterday: 89 °F (at 4:53 PM)
Minimum temperature yesterday: 70 °F (at 4:53 AM)
Average temperature yesterday: 80 °F

High & Low Weather Summary for the Past Weeks

 TemperatureHumidityPressure
High94 °F (Jul 23, 1:53 PM)94% (Jul 22, 4:53 AM)30.27 "Hg (Jul 22, 4:53 AM)
Low59 °F (Jul 20, 4:53 AM)33% (Jul 14, 6:53 PM)29.26 "Hg (Jul 13, 5:53 PM)
Average77 °F64%30.00 "Hg
* Reported Jul 13 1:53 AM — Jul 28 1:53 AM, Warren, Weather by CustomWeather, © 2016

Note: Actual official high and low records may vary slightly from our data, if they occured in-between our weather recording intervals... More about our weather records

Advertising

Warren Weather History for the Previous 24 Hours

Scroll right to see more
 ConditionsComfort  
Time TempWeatherWind HumidityBarometerVisibility
1:53 AM
Thu, Jul 28
75 °FClear.5 mph82%29.91 "Hg10 mi
12:53 AM75 °FClear.3 mph82%29.91 "Hg10 mi
11:53 PM
Wed, Jul 27
75 °FClear.6 mph82%29.93 "Hg10 mi
10:53 PM77 °FClear.9 mph74%29.93 "Hg10 mi
9:53 PM79 °FScattered clouds.8 mph65%29.92 "Hg10 mi
8:53 PM81 °FBroken clouds.14 mph60%29.91 "Hg10 mi
7:53 PM85 °FPartly sunny.5 mph50%29.89 "Hg10 mi
6:53 PM87 °FScattered clouds.13 mph46%29.89 "Hg10 mi
5:53 PM89 °FHot.3 mph41%29.90 "Hg10 mi
4:53 PM89 °FScattered clouds.5 mph42%29.91 "Hg10 mi
3:53 PM88 °FHot.7 mph42%29.92 "Hg10 mi
2:53 PM88 °FSunny.6 mph42%29.94 "Hg10 mi
1:53 PM87 °FScattered clouds.N/A40%29.96 "Hg10 mi
12:53 PM86 °FScattered clouds.8 mph46%29.98 "Hg10 mi
11:53 AM84 °FSunny.12 mph48%29.98 "Hg10 mi
10:53 AM84 °FSunny.12 mph49%29.99 "Hg10 mi
9:53 AM81 °FWarm.3 mph54%30.00 "Hg10 mi
8:53 AM77 °FWarm.3 mph64%30.01 "Hg10 mi
7:53 AM73 °FSunny.3 mph74%30.01 "Hg10 mi
6:53 AM70 °FClear.3 mph79%30.01 "Hg10 mi
5:53 AM70 °FClear.3 mph79%29.99 "Hg10 mi
4:53 AM70 °FClear.No wind76%29.98 "Hg10 mi
3:53 AM72 °FClear.6 mph71%29.98 "Hg10 mi
2:53 AM74 °FClear.5 mph67%29.97 "Hg10 mi
Weather by CustomWeather, © 2016

See weather overviewHow to use our weather pages